AAL1386 KDCA-KBOS

Flight info

Callsign AAL1386
Flight time N/A
Altitude 37000
Route SOOKI6 SWANN BROSS Q419 JFK ROBUC3
Aircraft B738/M-SDE2E3FGHIRWXY/LB1

Departure

Time 2026-04-21 16:43
Airport Ronald Reagan Washington National Airport (KDCA)

Arrival

Time N/A
Airport Boston Logan International Airport (KBOS)
Time Latitude Longitude Altitude Speed Heading
2026-04-21 15:53 38.85557 -77.04219 23 ft 0 kts 337°
2026-04-21 16:31 38.85540 -77.04209 28 ft 4 kts 337°
2026-04-21 16:31 38.85521 -77.04199 27 ft 4 kts
2026-04-21 16:31 38.85506 -77.04215 26 ft 3 kts 72°
2026-04-21 16:32 38.85511 -77.04197 28 ft 4 kts 72°
2026-04-21 16:32 38.85519 -77.04164 25 ft 4 kts 72°
2026-04-21 16:32 38.85527 -77.04131 23 ft 4 kts 72°
2026-04-21 16:32 38.85534 -77.04102 24 ft 1 kts 72°
2026-04-21 16:33 38.85534 -77.04101 23 ft 0 kts 72°
2026-04-21 16:37 38.85537 -77.04092 23 ft 3 kts 72°
2026-04-21 16:37 38.85556 -77.04050 23 ft 7 kts 41°
2026-04-21 16:38 38.85602 -77.04038 25 ft 7 kts 358°
2026-04-21 16:38 38.85650 -77.04042 23 ft 7 kts 355°
2026-04-21 16:38 38.85697 -77.04047 25 ft 7 kts 355°
2026-04-21 16:38 38.85743 -77.04052 26 ft 7 kts 355°
2026-04-21 16:39 38.85787 -77.04056 27 ft 6 kts 355°
2026-04-21 16:39 38.85839 -77.04062 25 ft 9 kts 355°
2026-04-21 16:39 38.85916 -77.04059 25 ft 12 kts 27°
2026-04-21 16:39 38.85964 -77.03976 27 ft 12 kts 29°
2026-04-21 16:40 38.85997 -77.03958 25 ft 0 kts 18°
2026-04-21 16:41 38.85998 -77.03958 25 ft 0 kts 18°
2026-04-21 16:41 38.86029 -77.03946 23 ft 7 kts 17°
2026-04-21 16:41 38.86090 -77.03900 22 ft 13 kts 52°
2026-04-21 16:41 38.86047 -77.03860 24 ft 11 kts 189°
2026-04-21 16:42 38.85971 -77.03856 24 ft 12 kts 175°
2026-04-21 16:42 38.85801 -77.03839 27 ft 51 kts 175°
2026-04-21 16:42 38.85142 -77.03776 23 ft 136 kts 175°
2026-04-21 16:42 38.83999 -77.03650 337 ft 178 kts 174°
2026-04-21 16:43 38.82852 -77.03497 1703 ft 156 kts 174°
2026-04-21 16:43 38.81689 -77.03285 2285 ft 182 kts 172°
2026-04-21 16:43 38.80338 -77.02980 2516 ft 211 kts 171°
2026-04-21 16:43 38.78835 -77.02638 2931 ft 224 kts 171°
2026-04-21 16:44 38.77260 -77.02252 3429 ft 237 kts 165°
2026-04-21 16:44 38.75852 -77.01110 4091 ft 248 kts 130°
2026-04-21 16:44 38.75131 -76.99045 4591 ft 266 kts 95°
2026-04-21 16:44 38.75097 -76.96630 4997 ft 276 kts 88°
2026-04-21 16:45 38.75141 -76.94160 4982 ft 277 kts 82°
2026-04-21 16:45 38.75747 -76.91925 5007 ft 268 kts 52°
2026-04-21 16:45 38.77012 -76.90217 5003 ft 264 kts 33°
2026-04-21 16:45 38.78546 -76.88955 5026 ft 262 kts 27°
2026-04-21 16:46 38.80132 -76.87781 5002 ft 264 kts 27°
2026-04-21 16:46 38.81721 -76.86589 5011 ft 264 kts 27°
2026-04-21 16:46 38.83307 -76.85377 4997 ft 265 kts 27°
2026-04-21 16:46 38.84846 -76.84188 4999 ft 263 kts 28°
2026-04-21 16:47 38.86395 -76.82965 5014 ft 262 kts 31°
2026-04-21 16:47 38.87825 -76.81489 5020 ft 265 kts 38°
2026-04-21 16:47 38.89200 -76.79872 5466 ft 269 kts 39°
2026-04-21 16:47 38.90567 -76.78248 6450 ft 268 kts 38°
2026-04-21 16:48 38.91937 -76.76627 7330 ft 268 kts 37°
2026-04-21 16:48 38.93319 -76.75002 8164 ft 270 kts 37°
2026-04-21 16:48 38.94715 -76.73370 8960 ft 273 kts 36°
2026-04-21 16:48 38.96130 -76.71726 9790 ft 275 kts 36°
2026-04-21 16:49 38.97568 -76.70059 10440 ft 285 kts 36°
2026-04-21 16:49 38.99111 -76.68278 10620 ft 310 kts 36°
2026-04-21 16:49 39.00749 -76.66383 11081 ft 322 kts 36°
2026-04-21 16:49 39.02384 -76.64376 11788 ft 327 kts 39°
2026-04-21 16:50 39.03995 -76.62300 12612 ft 328 kts 39°
2026-04-21 16:50 39.05612 -76.60208 13388 ft 332 kts 39°
2026-04-21 16:50 39.07216 -76.58146 14149 ft 335 kts 39°
2026-04-21 16:50 39.08917 -76.55970 14879 ft 339 kts 38°
2026-04-21 16:51 39.10588 -76.53808 15604 ft 344 kts 41°
2026-04-21 16:51 39.11871 -76.51129 16321 ft 363 kts 63°
2026-04-21 16:51 39.12443 -76.47889 17067 ft 376 kts 75°
2026-04-21 16:51 39.12808 -76.44526 17744 ft 383 kts 76°
2026-04-21 16:52 39.13149 -76.41101 18439 ft 388 kts 76°
2026-04-21 16:52 39.13500 -76.37635 19067 ft 392 kts 76°
2026-04-21 16:52 39.13741 -76.35327 19466 ft 394 kts 75°
2026-04-21 16:52 39.14119 -76.31811 20069 ft 398 kts 75°
2026-04-21 16:53 39.14638 -76.27104 20855 ft 403 kts 75°
2026-04-21 16:53 39.15035 -76.23513 21431 ft 407 kts 75°
2026-04-21 16:53 39.15443 -76.19889 21993 ft 411 kts 75°
2026-04-21 16:53 39.15869 -76.16232 22561 ft 415 kts 74°
2026-04-21 16:54 39.16301 -76.12538 23143 ft 418 kts 74°
2026-04-21 16:54 39.16592 -76.10033 23542 ft 420 kts 74°
2026-04-21 16:54 39.17026 -76.06288 24070 ft 424 kts 74°
2026-04-21 16:54 39.17459 -76.02520 24509 ft 428 kts 74°
2026-04-21 16:55 39.17895 -75.98713 24974 ft 430 kts 74°
2026-04-21 16:55 39.18331 -75.94889 25452 ft 433 kts 74°
2026-04-21 16:55 39.18933 -75.91106 25857 ft 427 kts 63°
2026-04-21 16:55 39.20196 -75.87710 26289 ft 415 kts 49°
2026-04-21 16:56 39.21934 -75.84873 26744 ft 404 kts 36°
2026-04-21 16:56 39.24039 -75.82520 27178 ft 401 kts 32°
2026-04-21 16:56 39.26197 -75.80221 27584 ft 404 kts 32°
2026-04-21 16:56 39.28366 -75.77904 28002 ft 407 kts 32°
2026-04-21 16:57 39.30545 -75.75552 28395 ft 410 kts 32°
2026-04-21 16:57 39.32733 -75.73168 28787 ft 413 kts 32°
2026-04-21 16:57 39.34929 -75.70759 29178 ft 415 kts 32°
2026-04-21 16:57 39.37130 -75.68337 29586 ft 418 kts 32°
2026-04-21 16:58 39.39344 -75.65897 29985 ft 419 kts 32°
2026-04-21 16:58 39.41570 -75.63444 30342 ft 422 kts 32°
2026-04-21 16:58 39.43810 -75.60975 30641 ft 424 kts 32°
2026-04-21 16:58 39.46067 -75.58492 30920 ft 427 kts 32°
2026-04-21 16:59 39.48333 -75.56005 31202 ft 428 kts 32°
2026-04-21 16:59 39.50603 -75.53509 31586 ft 427 kts 32°
2026-04-21 16:59 39.52864 -75.51020 32005 ft 426 kts 32°
2026-04-21 16:59 39.55115 -75.48538 32383 ft 425 kts 32°
2026-04-21 17:00 39.57364 -75.46059 32747 ft 425 kts 32°
2026-04-21 17:00 39.59612 -75.43577 33178 ft 423 kts 32°
2026-04-21 17:00 39.61095 -75.41940 33436 ft 423 kts 32°
2026-04-21 17:00 39.64105 -75.38618 33767 ft 426 kts 32°
2026-04-21 17:01 39.66363 -75.36123 34105 ft 426 kts 32°
2026-04-21 17:01 39.68615 -75.33631 34505 ft 424 kts 32°
2026-04-21 17:01 39.70858 -75.31147 34798 ft 424 kts 32°
2026-04-21 17:01 39.73076 -75.28690 35008 ft 425 kts 32°
2026-04-21 17:02 39.75329 -75.26192 35240 ft 426 kts 32°
2026-04-21 17:02 39.77582 -75.23691 35514 ft 426 kts 32°
2026-04-21 17:02 39.79794 -75.21110 35769 ft 431 kts 38°
2026-04-21 17:02 39.81830 -75.18204 36006 ft 436 kts 41°
2026-04-21 17:03 39.83805 -75.15197 36238 ft 437 kts 42°
2026-04-21 17:03 39.85764 -75.12176 36480 ft 437 kts 42°
2026-04-21 17:03 39.87740 -75.09154 36731 ft 437 kts 41°
2026-04-21 17:03 39.89724 -75.06154 36971 ft 437 kts 41°
2026-04-21 17:04 39.91722 -75.03159 37150 ft 439 kts 41°
2026-04-21 17:04 39.93728 -75.00158 37400 ft 440 kts 41°
2026-04-21 17:04 39.95748 -74.97135 37380 ft 444 kts 41°
2026-04-21 17:05 39.99504 -74.90665 37395 ft 450 kts 49°
2026-04-21 17:05 40.02887 -74.83837 37388 ft 445 kts 49°
2026-04-21 17:06 40.06249 -74.77079 37395 ft 443 kts 49°
2026-04-21 17:06 40.09639 -74.70378 37388 ft 442 kts 49°
2026-04-21 17:07 40.13032 -74.63693 37401 ft 442 kts 49°
2026-04-21 17:07 40.16400 -74.57037 37394 ft 442 kts 49°
2026-04-21 17:08 40.19850 -74.50393 37381 ft 437 kts 43°
2026-04-21 17:08 40.21900 -74.47532 37391 ft 427 kts 32°
2026-04-21 17:08 40.24189 -74.45071 37402 ft 424 kts 31°
2026-04-21 17:09 40.31131 -74.37822 37412 ft 427 kts 31°
2026-04-21 17:09 40.35761 -74.32900 37399 ft 430 kts 31°
2026-04-21 17:10 40.40390 -74.27939 37400 ft 430 kts 31°
2026-04-21 17:10 40.45018 -74.22966 37405 ft 431 kts 31°
2026-04-21 17:11 40.49654 -74.17980 37412 ft 431 kts 31°
2026-04-21 17:11 40.54055 -74.12538 37402 ft 445 kts 45°
2026-04-21 17:12 40.55735 -74.09076 37406 ft 454 kts 56°
2026-04-21 17:12 40.56947 -74.05196 37405 ft 464 kts 65°
2026-04-21 17:12 40.58759 -73.97032 37415 ft 466 kts 67°
2026-04-21 17:13 40.60575 -73.88863 36776 ft 467 kts 66°
2026-04-21 17:13 40.61511 -73.84815 36451 ft 460 kts 65°
2026-04-21 17:13 40.62483 -73.80814 35984 ft 453 kts 60°
2026-04-21 17:14 40.63787 -73.77183 35623 ft 439 kts 51°
2026-04-21 17:14 40.65433 -73.73881 35228 ft 425 kts 42°
2026-04-21 17:14 40.67355 -73.70996 34867 ft 415 kts 38°
2026-04-21 17:14 40.69299 -73.68211 34484 ft 411 kts 38°
2026-04-21 17:15 40.71227 -73.65451 34055 ft 408 kts 38°
2026-04-21 17:15 40.73129 -73.62708 33657 ft 404 kts 38°
2026-04-21 17:15 40.75011 -73.59974 33260 ft 400 kts 38°
2026-04-21 17:15 40.76866 -73.57262 32869 ft 396 kts 38°
2026-04-21 17:16 40.78698 -73.54575 32491 ft 392 kts 38°
2026-04-21 17:16 40.80512 -73.51914 32150 ft 388 kts 38°
2026-04-21 17:16 40.82307 -73.49277 31782 ft 384 kts 37°
2026-04-21 17:16 40.84084 -73.46665 31419 ft 381 kts 37°
2026-04-21 17:17 40.85847 -73.44070 31067 ft 377 kts 37°
2026-04-21 17:17 40.87589 -73.41501 30735 ft 374 kts 37°
2026-04-21 17:17 40.89314 -73.38952 30386 ft 370 kts 37°
2026-04-21 17:17 40.91023 -73.36426 29975 ft 367 kts 37°
2026-04-21 17:18 40.92715 -73.33923 29629 ft 362 kts 37°
2026-04-21 17:18 40.94381 -73.31455 29261 ft 358 kts 37°
2026-04-21 17:18 40.96027 -73.29017 28925 ft 353 kts 37°
2026-04-21 17:18 40.97658 -73.26600 28573 ft 350 kts 37°
2026-04-21 17:19 40.99275 -73.24203 28198 ft 347 kts 36°
2026-04-21 17:19 41.00877 -73.21826 27845 ft 344 kts 36°
2026-04-21 17:19 41.02463 -73.19471 27490 ft 341 kts 36°
2026-04-21 17:19 41.04034 -73.17137 27150 ft 338 kts 36°
2026-04-21 17:20 41.05573 -73.14849 26813 ft 336 kts 36°
2026-04-21 17:20 41.07121 -73.12546 26481 ft 334 kts 36°
2026-04-21 17:20 41.08665 -73.10247 26140 ft 333 kts 36°
2026-04-21 17:20 41.10207 -73.07951 25819 ft 334 kts 36°
2026-04-21 17:21 41.11757 -73.05644 25476 ft 336 kts 37°
2026-04-21 17:21 41.13305 -73.03330 25145 ft 334 kts 37°
2026-04-21 17:21 41.14839 -73.01035 24817 ft 332 kts 37°
2026-04-21 17:21 41.16365 -72.98750 24470 ft 330 kts 37°
2026-04-21 17:22 41.17392 -72.97214 24237 ft 328 kts 37°
2026-04-21 17:22 41.19392 -72.94218 23804 ft 326 kts 37°
2026-04-21 17:22 41.20869 -72.91925 23398 ft 331 kts 42°
2026-04-21 17:22 41.22072 -72.89299 23333 ft 333 kts 51°
2026-04-21 17:23 41.23119 -72.86572 23232 ft 333 kts 51°
2026-04-21 17:23 41.24175 -72.83788 23145 ft 341 kts 52°